Location: �terpigny
(49.8910°N, 2.9249°E)
Time: 06:36:18
(UTC+00:00)

Gurwin Techsat 1B - Pass Details

Date: 03 July 2022
Orbit: 812 x 813 km, 98.8° (Epoch: 14 August)

Event Time Altitude Azimuth Distance (km) Brightness Sun altitude
Rises 02:52:56 0° 13° (NNE) 3,349 13.1 -6.9°
Reaches altitude 10° 02:55:18 10° 11° (N) 2,413 12.1 -6.7°
Maximum altitude 03:00:36 69° 289° (WNW) 872 8.7 -6.1°
Drops below altitude 10° 03:05:51 10° 207° (SSW) 2,396 10.5 -5.5°
Enters shadow 03:06:59 - 206° (SSW) 2,839 10.8 -5.4°
